Tracking 19490 objects as of 23-Jan-2019
HD Live streaming from Space Station
objects crossing your sky now

FLOCK 3P 86

Track FLOCK 3P 86 now!
10-day predictions
FLOCK 3P 86 is classified as:


NORAD ID: 41985
Int'l Code: 2017-008AP
Perigee: 493.6 km
Apogee: 502.3 km
Inclination: 97.4 °
Period: 94.4 minutes
Semi major axis: 6868 km
RCS: Unknown
Launch date: February 15, 2017
Source: United States (US)
Launch site: SRIHARIKOTA (SRI)
aabbcc
Your satellite tracking list
Your tracking list is empty




NASA's NSSDC Master Catalog

Two Line Element Set (TLE):
1 41985U 17008AP  19022.91421799 +.00001010 +00000-0 +43363-4 0  9994
2 41985 097.4282 091.5575 0006391 311.2803 048.7883 15.24993219107427
Source of the keplerian elements: AFSPC